Location: Cahas Mountain Overlook
(37.0833°N, 80.1000°W)
Time: 19:45:59
(UTC-04:00)

Explorer 7 - Pass Details

Date: 12 February 2026
Orbit: 430 x 541 km, 50.2° (Epoch: 13 March)

Event Time Altitude Azimuth Distance (km) Brightness Sun altitude
Rises 23:37:54 0° 307° (NW) 2,633 - -63.1°
Reaches altitude 10° 23:40:05 10° 307° (NW) 1,760 - -63.3°
Maximum altitude 23:44:07 85° 218° (SW) 539 - -63.7°
Drops below altitude 10° 23:48:13 10° 131° (SE) 1,795 - -64.1°
Sets 23:50:27 0° 131° (SE) 2,691 - -64.3°
